Omaha Offutt, NE

11:24 PM CDT on September 19, 2017 (GMT -0500)
Offutt Air Force Base

Weather History for KOFF - January, 2013

Change the Weather History Date:

Monday, January 21, 2013

  Actual Average Record
Temperature  
Mean Temperature 11 °F -  
Max Temperature 16 °F 31 °F 53 °F (2002)
Min Temperature 6 °F 14 °F -2 °F (2014)
Degree Days  
Heating Degree Days 54    
Moisture  
Dew Point -2 °F    
Average Humidity 54    
Maximum Humidity 74    
Minimum Humidity 40    
Precipitation  
Precipitation 0.00 in - - ()
Sea Level Pressure  
Sea Level Pressure 30.47 in    
Wind  
Wind Speed 9 mph (NW)    
Max Wind Speed 18 mph    
Max Gust Speed 23 mph    
Visibility 10 miles    
Events Snow    
Averages and records for this station are not official NWS values.
T = Trace of Precipitation, MM = Missing Value Source: NWS Daily Summary

Daily Weather History Graph

Daily Weather History Graph

Search for Another Location

Airport or City:

Trip Planner

Search our weather history database for the weather conditions in past years. The results will help you decide how hot, cold, wet, or windy it might be!

Date:

Astronomy

Jan. 21, 2013 Rise Set
Actual Time 7:43 AM CST 5:27 PM CST
Civil Twilight 7:13 AM CST 5:57 PM CST
Nautical Twilight 6:39 AM CST 6:30 PM CST
Astronomical Twilight 6:07 AM CST 7:03 PM CST
Moon 1:07 PM CST (1/21) 3:12 AM CST (1/21)
Length of Visible Light 10h 43m
Length of Day
9h 43m
Waxing Gibbous, 75% of the Moon is Illuminated
Jan 21
Waxing Gibbous
Jan 26
Full
Feb 3
Last Quarter
Feb 10
New
Feb 17
First Quarter

Hourly Weather History & Observations

Time (CST) Temp. Windchill Dew Point Humidity Pressure Visibility Wind Dir Wind Speed Gust Speed Precip Events Conditions
12:09 AM 15.8 °F 10.2 °F 8.6 °F 73% 30.46 in 10.0 mi WSW 3.5 mph - N/A   Overcast
12:18 AM 15.8 °F 8.6 °F 8.6 °F 73% 30.47 in 10.0 mi West 4.6 mph - N/A   Overcast
12:48 AM 15.8 °F 4.2 °F 8.6 °F 73% 30.46 in 10.0 mi WNW 9.2 mph - N/A Snow Light Snow
12:55 AM 16.2 °F 3.9 °F 9.1 °F 74% 30.46 in 10.0 mi NW 10.4 mph - 0.00 in Snow Light Snow
1:20 AM 15.8 °F 2.1 °F 8.6 °F 73% 30.45 in 10.0 mi NW 12.7 mph - N/A Snow Light Snow
1:55 AM 16.3 °F 2.7 °F 7.9 °F 69% 30.45 in 10.0 mi NW 12.7 mph - 0.00 in   Mostly Cloudy
2:55 AM 14.7 °F 0.1 °F 4.1 °F 63% 30.47 in 10.0 mi NW 13.8 mph - N/A   Overcast
3:55 AM 13.1 °F -4.2 °F -0.6 °F 54% 30.47 in 10.0 mi NW 18.4 mph - N/A   Overcast
4:55 AM 12.4 °F -4.1 °F -4.0 °F 48% 30.46 in 10.0 mi NW 16.1 mph 23.0 mph N/A   Overcast
5:55 AM 9.9 °F -8.4 °F -6.7 °F 47% 30.48 in 10.0 mi NW 18.4 mph 23.0 mph N/A   Overcast
6:55 AM 8.2 °F -8.2 °F -9.6 °F 44% 30.49 in 10.0 mi NW 13.8 mph 20.7 mph N/A   Mostly Cloudy
7:55 AM 6.3 °F -8.4 °F -7.6 °F 53% 30.51 in 10.0 mi NW 10.4 mph - N/A   Overcast
8:55 AM 6.3 °F -8.4 °F -6.9 °F 55% 30.51 in 10.0 mi NNW 10.4 mph - N/A   Clear
9:55 AM 7.0 °F -5.7 °F -7.8 °F 51% 30.52 in 10.0 mi NNW 8.1 mph - N/A   Clear
10:55 AM 8.1 °F -7.0 °F -8.5 °F 47% 30.53 in 10.0 mi NW 11.5 mph - N/A   Partly Cloudy
11:55 AM 8.4 °F -5.7 °F -8.9 °F 45% 30.51 in 10.0 mi WNW 10.4 mph - N/A   Mostly Cloudy
12:55 PM 9.9 °F -4.7 °F -8.1 °F 44% 30.48 in 10.0 mi NW 11.5 mph - N/A   Overcast
1:55 PM 10.8 °F -1.1 °F -8.5 °F 42% 30.46 in 10.0 mi NW 8.1 mph - N/A   Scattered Clouds
2:55 PM 12.0 °F 0.5 °F -8.3 °F 40% 30.46 in 10.0 mi WNW 8.1 mph - N/A   Partly Cloudy
3:55 PM 12.7 °F -1.1 °F -7.6 °F 40% 30.45 in 10.0 mi WNW 11.5 mph - N/A   Partly Cloudy
4:55 PM 12.6 °F 0.2 °F -6.9 °F 42% 30.44 in 10.0 mi WNW 9.2 mph - N/A   Overcast
5:55 PM 13.3 °F 3.0 °F -6.3 °F 41% 30.42 in 10.0 mi NW 6.9 mph - N/A   Overcast
6:55 PM 12.7 °F 2.4 °F -4.7 °F 46% 30.44 in 10.0 mi NNW 6.9 mph - N/A   Mostly Cloudy
7:55 PM 13.1 °F 0.9 °F -2.7 °F 49% 30.44 in 10.0 mi North 9.2 mph - N/A   Overcast
8:55 PM 12.0 °F 2.7 °F -1.3 °F 55% 30.44 in 10.0 mi NNE 5.8 mph - N/A   Overcast
9:55 PM 11.7 °F 3.7 °F -1.7 °F 55% 30.44 in 10.0 mi NNW 4.6 mph - N/A   Overcast
10:55 PM 11.1 °F - -1.7 °F 57% 30.44 in 10.0 mi Calm Calm - N/A   Overcast
11:55 PM 11.7 °F - -1.8 °F 55% 30.43 in 10.0 mi Calm Calm - N/A   Overcast